Location: Cave
(41.8160°N, 12.9350°E)
Time: 03:48:56
(UTC+02:00)

ISS - Pass Details

Date: 02 March 2019
Orbit: 411 x 421 km, 51.6° (Epoch: 15 October)

Event Time Altitude Azimuth Distance (km) Brightness Sun altitude
Exits shadow 05:19:36 22° 324° (NW) 945 -2.3 -16.2°
Maximum altitude 05:20:09 24° 341° (NNW) 916 -2.2 -16.1°
Drops below altitude 10° 05:22:55 10° 37° (NE) 1,487 -0.4 -15.6°
Sets 05:25:17 0° 52° (NE) 2,354 1.0 -15.2°
